Location: *
(52.2090°N, 4.1550°W)
Time: 09:02:34
(UTC+00:00)

ALOS 2 - Pass Details

Date: 19 July 2019
Orbit: 630 x 632 km, 97.9° (Epoch: 20 August)

Event Time Altitude Azimuth Distance (km) Brightness Sun altitude
Exits shadow 22:54:05 20° 128° (SE) 1,485 4.0 -14.5°
Maximum altitude 22:56:45 41° 67° (ENE) 917 3.4 -14.6°
Drops below altitude 10° 23:00:54 10° 357° (N) 2,027 6.4 -14.9°
Sets 23:03:12 0° 351° (N) 2,940 7.8 -15.0°
